This is the latest recevied weather packets stored in our database for station/object LA9TLA-1. If no packets are shown the sender has not sent any weather packets the latest 10 day(s).
| Time | Temp. | Humidity | Pressure | Rain* | Wind** | Luminosity | Snow |
|---|---|---|---|---|---|---|---|
| 1777822066 | 10.56° C | 41% | 1019.6 hPa | 0 mm | - | - | - |
| 1777820263 | 10.56° C | 45% | 1019.7 hPa | 0 mm | - | - | - |
| 1777818465 | 10.56° C | 54% | 1019.7 hPa | 0 mm | - | - | - |
| 1777816666 | 11.11° C | 59% | 1019.9 hPa | 0 mm | - | - | - |
| 1777814863 | 10° C | 77% | 1020.2 hPa | 0 mm | - | - | - |
| 1777813065 | 10° C | 67% | 1020.5 hPa | 0 mm | - | - | - |
| 1777809465 | 10.56° C | 45% | 1020.7 hPa | 0 mm | - | - | - |
| 1777807667 | 10.56° C | 38% | 1020.7 hPa | 0 mm | - | - | - |
| 1777805864 | 10.56° C | 45% | 1021 hPa | 0 mm | - | - | - |
| 1777802265 | 10.56° C | 66% | 1021.2 hPa | 0 mm | - | - | - |
| 1777798665 | 10.56° C | 83% | 1021.4 hPa | 0 mm | - | - | - |
| 1777796864 | 10° C | 99% | 1021.4 hPa | 0 mm | - | - | - |
| 1777795066 | 8.89° C | 99% | 1021.6 hPa | 0 mm | - | - | - |
| 1777791465 | 6.67° C | 99% | 1021.2 hPa | 0 mm | - | - | - |
| 1777789666 | 6.11° C | 99% | 1021.2 hPa | 0 mm | - | - | - |
| 1777787865 | 6.11° C | 99% | 1021.2 hPa | 0 mm | - | - | - |
| 1777786064 | 6.11° C | 99% | 1021.2 hPa | 0 mm | - | - | - |
| 1777782463 | 5.56° C | 99% | 1021.2 hPa | 0 mm | - | - | - |
| 1777780665 | 5.56° C | 99% | 1021.2 hPa | 0 mm | - | - | - |
| 1777778866 | 5.56° C | 99% | 1021.2 hPa | 0 mm | - | - | - |
| 1777777065 | 5.56° C | 99% | 1021.1 hPa | 0 mm | - | - | - |
| 1777775266 | 6.11° C | 99% | 1021.2 hPa | 0 mm | - | - | - |
| 1777773463 | 6.11° C | 99% | 1021 hPa | 0 mm | - | - | - |
| 1777771666 | 6.11° C | 99% | 1021.1 hPa | 0 mm | - | - | - |
| 1777769864 | 6.11° C | 99% | 1021.1 hPa | 0 mm | - | - | - |
* Rain latest hour (hover to see other rain measurements)
** Current wind speed in m/s (hover to see current wind gust speed)